Location: Julian California
(33.0790°N, 116.6010°W)
Time: 00:09:33
(UTC-07:00)

Cosmos 2154 Rocket - Pass Details

Date: 12 July 2018
Orbit: 965 x 997 km, 82.9° (Epoch: 23 September)

Event Time Altitude Azimuth Distance (km) Brightness Sun altitude
Rises 21:54:52 0° 356° (N) 3,708 7.8 -20.7°
Reaches altitude 10° 21:57:25 10° 359° (N) 2,752 7.0 -21.1°
Maximum altitude 22:03:43 72° 83° (E) 1,028 3.9 -22.0°
Enters shadow 22:05:57 42° 156° (SSE) 1,366 4.3 -22.3°
